Regional Weather Roundup
Issued by NWS Goodland, KS

Home | Current Version | Previous Version | Text Only | Print | Product List | Glossary Off
Versions: 1 2 3 4 5 6 7 8 9 10 11 12 13 14 15 16 17 18 19 20 21 22 23 24 25 26 27 28 29 30 31 32 33 34 35 36 37 38 39 40 41 42 43 44 45 46 47 48 49 50

000
ASUS43 KGLD 230808
RWRGLD

GOODLAND FORECAST AREA HOURLY WEATHER ROUNDUP
NATIONAL WEATHER SERVICE GOODLAND KS
200 AM MDT SAT AUG 23 2014

...OFFICIAL OBSERVATIONS...

CITY           SKY/WX    TMP DP  RH WIND       PRES   REMARKS
GOODLAND KS    MOCLDY    64  63  96 SE7       29.93S
HILL CITY KS   MOCLDY    69  67  93 CALM      29.89F
IMPERIAL NEB   MOCLDY    66  63  90 NE3       29.92S
MCCOOK NEB     MOCLDY    67  66  97 E7        29.88F
AKRON CO       CLOUDY    61  59  93 CALM      30.01R
BURLINGTON CO  MOCLDY    63  62  97 SW8       29.99R
LIMON CO       FOG       54  53  97 CALM      30.03S VSB 3/4
$$

...UNOFFICIAL OBSERVATIONS...

CITY           SKY/WX    TMP DP  RH WIND       PRES   REMARKS
COLBY KS       PTCLDY    64  64 100 E6        29.92S FOG
NORTON KS      CLEAR     66  64  94 CALM      29.89S
SHARON SPRINGS   N/A     64  62  95 S8G16       N/A
WAKEENEY KS      N/A     70  64  81 MISG        N/A
KIT CARSON CO    N/A     62  59  91 MISG        N/A
YUMA CO          N/A     63  62  98 CALM        N/A
$$


USA.gov is the U.S. government's official web portal to all federal, state and local government web resources and services.